SCP
3 3 4 4 3 3 2 1 1 1 1 1 1 2 2 2 2 2 2 2 3 2 2 1 1 1 1 1 1 1 1 1 1 1 1 1 1 1 1 1 1 1 1
3 3 3 4 3 3 2 2 1 1 1 1 1 2 2 2 2 2 2 2 2 2 2 1 1 1 1 1 1 1 1 1 1 1 1 1 1 1 1 1 1 1 1
3 3 3 3 3 3 2 2 1 1 1 1 1 2 2 2 2 2 2 2 2 2 1 1 1 1 1 1 1 1 1 1 1 1 2 1 1 1 2 2 2 2 1
3 3 3 3 3 3 2 2 1 1 1 1 2 2 2 2 2 2 2 2 2 1 1 1 1 1 1 1 1 1 1 1 1 2 3 2 1 1 2 2 2 2 1
3 3 3 3 3 3 3 2 2 2 2 2 2 2 2 2 2 2 2 2 2 2 1 1 1 1 1 1 1 1 1 1 1 2 3 2 2 2 2 2 2 2 2
3 3 3 2 3 3 3 3 2 2 2 2 2 2 2 2 2 2 2 2 2 2 1 1 1 1 1 1 1 1 1 1 1 1 2 2 2 2 2 2 2 2 2
4 4 3 2 3 3 3 3 2 2 2 2 2 2 2 2 2 2 2 3 3 2 2 1 1 1 1 1 1 1 1 1 1 1 1 1 2 2 2 2 2 2 2
4 4 3 2 2 3 3 3 3 2 2 2 2 2 2 2 2 2 2 3 3 3 2 2 1 1 1 1 1 1 1 1 1 1 1 1 2 2 2 2 2 2 2
4 4 3 2 2 2 3 3 3 2 2 2 2 2 2 2 2 2 2 2 2 3 3 2 2 2 1 1 1 1 1 1 1 1 1 1 2 2 2 2 2 2 2
3 3 3 3 2 2 3 3 3 2 2 2 2 2 2 2 2 2 2 2 2 2 2 2 2 2 2 2 1 1 1 1 1 1 1 2 2 2 2 2 2 2 2
3 3 3 3 3 3 3 3 2 2 2 2 2 2 2 2 2 2 2 2 2 2 2 2 3 3 3 2 2 1 1 1 1 1 1 2 2 2 2 2 2 2 2
4 4 3 3 3 3 2 2 2 2 2 2 2 2 2 2 3 2 2 2 2 1 1 2 2 3 3 3 3 2 1 1 1 1 1 1 2 1 2 2 1 2 2
5 4 4 4 4 3 2 2 3 3 3 3 3 3 2 3 3 3 3 3 2 2 2 2 2 2 3 3 3 2 2 1 1 1 1 1 2 1 2 2 1 1 2
5 5 5 5 5 4 4 4 4 4 3 3 3 4 4 4 4 4 4 4 3 3 2 2 2 2 2 3 3 2 2 1 1 1 2 2 2 2 2 2 2 1 2
6 6 6 6 6 6 6 6 6 5 5 4 4 5 6 6 6 6 6 6 5 4 3 3 3 2 2 2 2 2 2 1 1 1 2 2 2 2 2 2 2 1 1
8 7 7 7 7 8 8 9 8 8 7 6 6 7 8 8 8 9 9 7 5 4 4 4 4 3 2 1 1 1 1 1 1 1 2 2 2 2 2 2 1 1 1
11 10 9 8 8 9 10 11 11 10 10 10 10 10 11 10 11 11 10 8 5 4 4 4 4 3 2 1 1 1 1 1 1 1 2 2 2 2 2 2 1 1 1
16 15 12 9 9 10 11 12 12 12 12 13 14 15 14 13 13 12 9 7 6 5 4 4 3 2 1 1 1 1 1 1 1 1 1 2 2 2 2 2 2 2 1
22 19 15 11 11 12 13 14 14 14 15 18 21 21 18 15 13 10 8 7 7 6 4 4 3 3 2 1 1 1 1 1 1 1 1 1 2 2 1 1 2 1 1
24 21 16 14 13 13 14 15 16 17 19 22 24 24 20 14 10 8 8 8 8 6 5 4 4 3 2 1 1 1 1 1 1 1 1 1 2 2 1 1 2 1 1
20 18 15 13 14 14 14 15 17 18 19 20 21 20 16 11 8 7 8 10 9 7 5 5 4 3 2 1 1 1 1 1 1 1 1 1 1 1 1 1 1 2 2
15 14 13 12 13 13 13 15 16 17 16 15 15 14 11 8 6 7 8 9 9 7 5 4 4 3 2 2 1 1 1 1 1 1 1 1 1 1 1 1 1 2 2
12 11 11 11 11 11 12 14 15 14 13 12 11 10 8 7 6 7 7 8 7 5 4 3 3 2 2 2 2 1 1 1 1 1 1 1 1 1 1 1 1 1 2
12 10 10 11 11 10 11 12 12 11 10 9 9 9 9 8 8 7 7 7 5 4 3 3 3 3 2 2 2 2 1 1 1 1 1 1 1 1 1 1 1 1 1
11 10 10 12 11 9 9 8 8 8 9 10 11 13 13 11 9 7 6 5 5 4 3 3 4 3 3 2 2 2 2 1 1 1 1 1 1 1 1 1 1 1 1
11 9 10 11 11 8 7 6 7 8 9 12 14 16 15 12 9 6 5 5 5 4 3 4 4 3 3 3 2 2 2 2 1 1 1 1 1 1 1 1 1 1 1
Wind_Speed
13 14 15 14 12 11 10 10 9 9 9 9 9 9 9 10 9 10 10 10 9 9 9 8 8 8 8 8 9 9 8 7 8 8 9 10 10 10 9 8 9 8 11
16 14 15 14 12 11 10 10 9 9 9 9 8 9 9 9 9 9 9 9 9 9 9 8 7 8 8 8 8 8 7 7 7 8 10 10 10 10 9 8 9 7 11
16 14 13 13 12 11 11 10 9 9 9 8 8 8 9 9 8 8 8 8 8 8 8 7 7 7 7 7 7 7 6 5 6 8 9 6 8 10 10 9 10 10 10
16 14 13 13 12 11 11 10 9 9 9 8 8 8 8 8 8 8 8 8 8 7 7 7 6 6 6 6 6 5 4 4 5 6 4 4 6 10 9 9 9 9 9
16 15 14 14 12 11 11 10 9 9 9 8 8 8 8 8 7 7 8 8 7 7 7 6 6 6 6 5 5 4 3 2 3 3 4 5 6 10 10 9 9 9 9
16 16 15 14 12 11 10 10 9 9 9 8 8 8 8 7 8 7 7 6 6 6 6 6 6 5 5 4 3 3 2 1 2 2 4 6 6 9 10 9 10 10 8
15 15 15 14 12 11 10 10 9 9 8 8 7 7 7 7 7 7 7 6 5 5 5 6 6 5 4 3 2 1 1 1 2 2 5 6 7 11 10 9 10 9 8
15 14 13 15 13 12 11 10 9 8 7 7 7 7 6 6 6 6 6 6 5 5 5 5 5 4 3 3 2 1 1 2 1 3 5 6 8 11 11 10 9 8 8
14 13 12 12 11 12 12 10 9 8 7 7 7 6 7 6 6 6 5 5 5 5 5 5 5 4 3 2 1 1 1 2 1 2 5 6 10 12 11 9 8 8 7
11 12 11 11 11 10 10 11 10 9 8 8 7 7 7 7 7 7 6 5 5 5 5 5 5 4 3 3 3 2 2 2 2 3 4 7 11 11 10 9 8 8 7
9 10 10 10 10 10 10 11 11 10 9 8 8 9 8 6 6 6 6 7 6 5 5 5 5 4 4 5 5 4 3 2 2 3 5 10 11 11 10 8 7 7 7
9 9 9 9 9 8 7 8 6 7 7 6 5 6 5 3 4 6 8 8 7 6 6 5 4 5 5 3 5 6 2 2 2 4 6 12 11 10 9 7 7 7 7
9 7 7 8 7 7 5 5 4 3 4 4 5 5 4 3 3 4 4 5 5 6 4 4 4 3 2 1 1 2 1 1 2 3 7 11 10 10 9 7 6 6 6
8 8 7 7 6 6 5 4 4 3 3 3 3 3 3 2 2 3 2 3 3 2 2 2 1 1 1 1 1 1 1 2 2 3 6 11 10 9 8 7 6 6 5
8 8 8 7 6 4 4 3 4 3 3 3 3 3 2 2 2 3 2 1 2 2 2 1 1 1 1 1 1 1 2 2 3 3 4 9 10 9 8 7 7 6 5
8 8 7 7 7 5 4 3 3 3 3 3 3 3 2 2 2 2 2 1 1 1 1 1 1 1 1 1 1 1 1 1 3 3 3 5 8 9 8 7 6 6 4
8 8 8 8 7 5 5 4 3 2 3 3 3 4 3 2 3 2 2 2 1 1 1 1 1 1 2 2 1 1 1 1 2 3 3 3 4 7 8 8 7 6 5
9 8 7 7 8 6 4 3 2 2 3 3 3 3 3 3 3 2 2 2 1 1 1 1 1 1 1 1 1 1 1 1 2 2 2 2 3 3 6 8 8 7 7
9 9 7 6 7 6 5 3 3 2 2 2 3 3 4 4 4 2 2 2 2 1 1 1 1 0 1 1 1 1 1 1 2 2 2 2 2 3 3 7 9 8 8
10 9 8 7 6 5 4 3 2 2 2 2 2 3 4 3 3 2 2 2 1 2 1 1 1 0 1 1 2 1 1 2 2 2 2 2 2 3 4 5 5 6 9
10 9 8 8 7 5 4 4 3 3 3 3 3 4 4 3 3 2 2 2 1 1 2 1 1 1 1 1 1 0 1 2 3 3 2 2 3 3 3 4 4 4 5
9 10 9 7 7 6 4 3 3 3 3 3 2 4 4 3 3 3 2 2 2 1 2 1 1 1 1 1 1 1 1 1 2 3 3 3 4 3 4 5 4 4 4
10 10 8 8 7 6 6 4 3 2 2 3 3 3 3 3 3 2 3 2 1 1 1 2 2 2 1 1 1 1 1 1 0 1 2 2 2 2 3 3 4 5 5
10 10 9 8 7 6 6 5 5 4 3 3 3 3 4 4 4 3 3 2 2 1 1 2 2 2 2 2 1 1 1 0 0 1 2 2 3 3 3 3 3 3 4
8 10 10 9 7 6 6 5 4 4 3 3 3 4 4 4 4 4 3 3 2 2 2 2 2 2 2 2 2 1 2 2 2 2 2 2 2 3 3 3 2 2 3
7 9 9 9 8 6 5 5 4 3 3 3 3 4 3 3 3 4 4 3 3 3 3 3 3 3 3 2 2 2 2 2 2 2 2 2 2 2 2 2 2 2 3
Wind_Direction
106 114 118 116 115 111 107 103 101 97 98 97 94 94 93 90 89 91 91 90 92 94 98 99 102 102 98 94 96 97 101 109 112 113 119 123 122 119 119 124 121 113 114
111 115 117 118 119 117 113 109 106 102 102 101 98 96 95 94 93 94 95 94 92 94 97 100 103 102 97 94 100 101 102 114 126 129 128 125 126 122 118 115 111 111 118
111 117 119 119 122 123 120 116 113 111 112 108 104 102 98 95 94 96 97 97 94 93 94 95 104 104 99 99 103 105 106 117 132 144 139 132 128 122 118 115 114 118 120
116 122 121 122 123 127 126 123 119 116 116 114 111 108 103 98 97 95 95 94 92 90 91 89 95 106 104 105 109 111 113 123 149 155 145 126 123 123 121 119 115 117 120
119 121 122 126 123 127 131 130 126 121 119 119 117 115 111 108 105 99 93 89 88 89 88 85 85 99 105 110 115 122 123 119 152 167 137 118 111 127 126 122 120 117 114
121 122 127 129 126 126 131 130 129 128 125 124 120 118 116 115 111 105 99 94 93 93 92 92 90 90 96 105 122 138 149 175 196 180 131 120 115 127 128 128 125 122 120
121 121 128 131 131 131 131 132 131 130 129 128 126 124 122 121 117 115 113 111 106 103 101 100 96 100 105 108 118 150 183 222 199 128 111 108 121 135 135 132 126 124 127
120 122 131 138 138 137 136 133 132 129 132 132 132 133 133 131 130 130 130 131 124 119 112 109 100 105 120 127 129 173 238 276 125 133 117 116 129 136 136 133 135 136 132
124 130 137 142 143 143 140 138 136 135 134 140 142 146 149 149 149 144 145 144 140 132 122 117 119 126 137 151 167 225 231 266 220 156 129 122 133 138 141 140 141 141 138
132 134 143 148 149 149 147 149 149 149 150 154 163 169 168 167 163 159 154 142 145 143 142 140 138 143 162 174 192 223 245 254 201 142 120 125 133 137 140 143 147 151 152
136 141 148 147 151 154 153 152 158 162 165 169 178 186 188 184 171 169 144 149 158 160 158 159 161 166 181 191 201 215 237 209 155 115 110 125 131 135 137 143 153 158 161
149 151 150 146 148 150 148 149 163 165 164 182 172 179 192 188 172 155 148 160 171 180 182 185 186 197 207 197 193 206 217 184 138 118 123 133 135 139 143 147 152 163 168
149 146 139 139 142 146 142 152 158 161 156 179 170 176 189 184 160 144 156 166 182 189 198 179 204 218 207 157 141 173 158 111 109 108 125 133 136 143 149 151 153 162 169
147 146 140 140 141 143 137 149 157 156 157 160 150 182 174 181 162 149 159 165 177 181 178 169 218 188 156 120 115 146 134 102 98 106 132 139 142 147 150 154 159 168 170
150 147 143 137 137 133 128 156 152 158 155 153 155 170 170 180 164 147 143 161 170 154 166 166 195 151 134 105 116 108 84 93 98 106 127 147 151 154 156 157 160 169 181
150 146 140 140 139 139 141 149 147 156 146 155 151 153 176 165 140 138 145 147 161 125 128 161 162 152 128 98 74 90 89 97 106 116 131 149 157 161 164 163 163 172 188
146 141 142 146 143 151 155 167 150 148 146 150 145 155 170 157 137 141 150 159 157 142 141 144 148 181 190 180 159 135 136 120 119 127 134 154 160 169 171 172 172 176 184
147 143 149 154 148 156 156 159 144 147 148 154 150 151 161 160 154 157 159 149 158 150 144 147 191 213 194 176 166 186 153 143 143 148 165 173 161 167 177 180 178 181 186
148 144 148 142 146 155 154 154 147 139 143 155 152 148 155 164 160 162 153 139 162 145 137 183 136 188 229 202 201 196 184 171 172 188 180 177 177 171 170 181 187 189 196
145 143 146 146 147 154 154 155 157 160 147 141 136 134 140 158 163 158 153 136 157 139 131 115 95 95 310 251 246 198 197 210 182 184 196 192 185 191 190 185 183 197 204
146 148 151 156 153 157 158 171 176 173 166 159 150 136 149 161 159 165 150 135 163 142 140 155 144 186 220 232 254 245 236 219 199 185 190 201 204 202 196 185 189 192 191
155 156 156 155 160 165 161 167 171 168 168 153 137 134 154 157 151 168 137 148 142 148 153 152 162 236 247 202 218 240 239 230 242 203 182 199 206 201 200 199 197 196 188
157 158 160 160 163 170 165 167 168 166 175 155 148 150 157 154 156 153 154 162 165 181 154 188 192 214 237 250 233 224 258 241 209 222 214 211 191 205 211 201 200 195 188
160 159 156 155 159 166 168 173 178 177 178 161 152 148 158 161 163 165 163 175 188 184 169 212 184 214 225 246 241 235 229 242 247 247 238 222 213 214 219 231 222 197 185
160 158 156 154 157 163 170 176 186 183 169 155 154 149 164 165 173 174 170 179 184 200 194 212 210 220 234 242 238 232 237 239 222 229 250 240 237 220 208 210 222 209 196
154 151 149 153 158 164 174 174 187 182 160 158 169 162 174 172 175 174 180 184 189 204 200 208 216 220 235 253 257 250 238 232 225 224 236 245 245 240 217 204 204 203 201